This is the latest recevied weather packets stored in our database for station/object S51UL-6. If no packets are shown the sender has not sent any weather packets the latest 10 day(s).
| Time | Temp. | Humidity | Pressure | Rain* | Wind** | Luminosity | Snow |
|---|---|---|---|---|---|---|---|
| 1778003307 | 16.67° C | 61% | 1010.9 hPa | 0 mm | - | - | - |
| 1778003007 | 16.67° C | 60% | 1010.9 hPa | 0 mm | - | - | - |
| 1778002707 | 16.67° C | 60% | 1010.9 hPa | 0 mm | - | - | - |
| 1778002408 | 16.67° C | 59% | 1010.9 hPa | 0 mm | - | - | - |
| 1778002107 | 17.22° C | 59% | 1011 hPa | 0 mm | - | - | - |
| 1778001807 | 17.22° C | 58% | 1011.2 hPa | 0 mm | - | - | - |
| 1778001508 | 17.78° C | 58% | 1010.9 hPa | 0 mm | - | - | - |
| 1778001207 | 17.78° C | 57% | 1010.9 hPa | 0 mm | - | - | - |
| 1778000907 | 17.78° C | 57% | 1011.2 hPa | 0 mm | - | - | - |
| 1778000607 | 17.78° C | 57% | 1011.2 hPa | 0 mm | - | - | - |
| 1778000307 | 18.33° C | 57% | 1011.2 hPa | 0 mm | - | - | - |
| 1778000007 | 18.33° C | 56% | 1011.3 hPa | 0 mm | - | - | - |
| 1777999408 | 18.33° C | 55% | 1011.3 hPa | 0 mm | - | - | - |
| 1777999108 | 18.33° C | 55% | 1011.3 hPa | 0 mm | - | - | - |
| 1777998808 | 18.89° C | 54% | 1011.3 hPa | 0 mm | - | - | - |
| 1777998509 | 18.89° C | 54% | 1011.4 hPa | 0 mm | - | - | - |
| 1777997308 | 18.89° C | 53% | 1011.6 hPa | 0 mm | - | - | - |
| 1777997008 | 18.89° C | 52% | 1011.7 hPa | 0 mm | - | - | - |
| 1777996708 | 19.44° C | 52% | 1011.6 hPa | 0 mm | - | - | - |
| 1777995808 | 19.44° C | 51% | 1011.4 hPa | 0 mm | - | - | - |
| 1777995509 | 20° C | 51% | 1011.5 hPa | 0 mm | - | - | - |
| 1777995208 | 20° C | 51% | 1011.3 hPa | 0 mm | - | - | - |
| 1777994909 | 19.44° C | 51% | 1011.5 hPa | 0 mm | - | - | - |
| 1777994308 | 19.44° C | 52% | 1011.4 hPa | 0 mm | - | - | - |
| 1777994009 | 19.44° C | 52% | 1011.4 hPa | 0 mm | - | - | - |
* Rain latest hour (hover to see other rain measurements)
** Current wind speed in m/s (hover to see current wind gust speed)